SKYSAT-2 (40072 NORAD) Tracking and Keplerian Element Data

This shows tracking and keplerian element data for the satellite.

Feedback or suggestion? Click here.




ElementValue
Catalog40072
NameSKYSAT-2
Epoch Orbit23547
Epoch Day319.96340977
Epoch Year2018
RAAN98.2709
Inclination98.3921
Eccentricity0.000625
Argument of Perigee183.887
Mean Anonmoly176.2289
Mean Motion14.81129441
Decay Rate1.85E-06
L11 40072U 14037D 18319.96340977 .00000185 00000-0 31237-4 0 9999
L22 40072 98.3921 98.2709 0006250 183.8870 176.2289 14.81129441235471

Live tracking and technical data element details for SKYSAT-2 (NORAD 40072). SKYSAT-2 can be tracked NOW for your location showing map with azimuth and elevation plus other details from your city location.

Track the satellite on the map from your city or location and see movement details for azimuth, elevation, latitude, longitude, range, height, and movement on the map or in text.







IsCatalogInMostPopularTable: catalog: 40072, numindb: 115
Update: records affected: 1



GetName: 40072 SKYSAT-2

Hit Count: updated at: Fri, 16 Nov 2018 12:39:43 GMT